Погода в Куманово

Северная Македония     42°08′34″N   21°42′56″E
В апреле 2022 года жителям России запретили посещать сайт meteo.paraplan.net по решению Генеральной прокуратуры. Аудитория сайта уменьшилась в 10 раз. Владельцы сайта не видят смысла в поддержке погодного сервера в таких условиях. Сайт будет закрыт в октябре.
темп.,
°C
ветер,
м/с
пор.,
м/с
влажн.,
%
обл.,
%
осадки,
мм/ч
давл.,
гПа
погр.,
м
3 октября, пн
пн323:00+13юв11650 0.0 101810
02:00+12юв11670 0.0 101711
05:00+11ссз11693 0.0 101510
08:00+13ссз336396 0.0 1016131
11:00+15с61063100 0.2 1018993
14:00+16с685829 0.6 10171299
17:00+15с6105690 0.1 10181321
20:00+12ссз410604 0.1 1020365
4 октября, вт
вт423:00+9ссз367144 0.0 1021127
02:00+8ссз33785 0.0 102256
05:00+7ссз338173 0.0 102259
08:00+9ссз356915 0.0 1023279
11:00+14ссз574619 0.0 10221705
14:00+15ссв684263 0.0 10221908
17:00+13ссв574672 0.0 10221167
20:00+9с33675 0.0 102449
5 октября, ср
ср523:00+8ссз22755 0.0 102631
02:00+7с33795 0.0 102737
05:00+6ссз228213 0.0 102827
08:00+9ссз236720 0.0 1028156
11:00+14с34476 0.0 10281456
14:00+17ссз333748 0.0 10271663
17:00+17ссз3238100 0.0 10261075
20:00+12с2252100 0.0 102821
6 октября, чт
чт623:00+10ссз2264100 0.0 102922
02:00+9с116770 0.0 102910
05:00+8с117069 0.0 102810
08:00+10с1161100 0.0 102874
11:00+16ссз2243100 0.0 1027551
14:00+19ссз3431100 0.0 1026868
17:00+19ссз4632100 0.0 1026334
20:00+13ссз4450100 0.0 102762
7 октября, пт
пт723:00+11ссз4560100 0.0 102868
02:00+10ссз4463100 0.0 102865
05:00+9ссз446682 0.0 102865
08:00+11ссз346117 0.0 1028142
11:00+17ссз334177 0.0 1027643
14:00+21ссз223199 0.0 10241023
17:00+19с3438100 0.0 1023128
20:00+14с3359100 0.0 102448